MSR1015 OMSJ-OKKK

Flight info

Callsign MSR1015
Flight time N/A
Altitude 38000
Route RIDAP M557 TUMAK M600 KUMBO/N0393F240 A453 DEBTI
Aircraft A339/H-SADE1E2E3GHIJ3J5M1P2RWXY/LB2D1

Departure

Time 2026-04-26 21:46
Airport Sharjah International Airport (OMSJ)

Arrival

Time N/A
Airport Kuwait International Airport (OKKK)
Time Latitude Longitude Altitude Speed Heading
2026-04-26 21:14 25.32323 55.52022 121 ft 0 kts 212°
2026-04-26 21:26 25.32324 55.52022 121 ft 0 kts 212°
2026-04-26 21:27 25.32335 55.52030 121 ft 3 kts 212°
2026-04-26 21:27 25.32352 55.52042 116 ft 3 kts 212°
2026-04-26 21:27 25.32369 55.52054 121 ft 3 kts 212°
2026-04-26 21:27 25.32387 55.52065 121 ft 3 kts 212°
2026-04-26 21:28 25.32404 55.52077 121 ft 3 kts 212°
2026-04-26 21:28 25.32418 55.52086 121 ft 3 kts 221°
2026-04-26 21:28 25.32431 55.52097 121 ft 3 kts 253°
2026-04-26 21:28 25.32436 55.52111 121 ft 3 kts 290°
2026-04-26 21:29 25.32428 55.52130 121 ft 3 kts 303°
2026-04-26 21:29 25.32421 55.52141 121 ft 0 kts 302°
2026-04-26 21:43 25.32258 55.53228 124 ft 0 kts 302°
2026-04-26 21:45 25.32281 55.53187 120 ft 33 kts 302°
2026-04-26 21:46 25.32587 55.52650 122 ft 129 kts 302°
2026-04-26 21:46 25.33183 55.51554 200 ft 195 kts 300°
2026-04-26 21:46 25.33909 55.50293 1173 ft 192 kts 303°
2026-04-26 21:46 25.34716 55.48984 1729 ft 217 kts 301°
2026-04-26 21:47 25.35555 55.47525 1937 ft 228 kts 300°
2026-04-26 21:47 25.36395 55.46031 1966 ft 229 kts 301°
2026-04-26 21:47 25.37238 55.44547 1978 ft 228 kts 301°
2026-04-26 21:47 25.38071 55.43081 1974 ft 228 kts 301°
2026-04-26 21:48 25.38919 55.41587 1980 ft 230 kts 301°
2026-04-26 21:48 25.39769 55.40101 1977 ft 227 kts 300°
2026-04-26 21:48 25.40617 55.38619 1975 ft 228 kts 301°
2026-04-26 21:48 25.41488 55.37151 1977 ft 229 kts 302°
2026-04-26 21:49 25.42360 55.35683 1974 ft 228 kts 302°
2026-04-26 21:49 25.43228 55.34207 1973 ft 228 kts 302°
2026-04-26 21:49 25.44094 55.32733 1975 ft 228 kts 301°
2026-04-26 21:49 25.44866 55.31207 2089 ft 231 kts 294°
2026-04-26 21:50 25.45463 55.29553 2726 ft 231 kts 288°
2026-04-26 21:50 25.45870 55.27861 3630 ft 227 kts 282°
2026-04-26 21:50 25.46101 55.26129 4363 ft 229 kts 276°
2026-04-26 21:50 25.46156 55.24358 5160 ft 230 kts 270°
2026-04-26 21:51 25.46100 55.22561 5679 ft 242 kts 270°
2026-04-26 21:51 25.46046 55.20624 5933 ft 262 kts 270°
2026-04-26 21:51 25.46004 55.18585 6407 ft 268 kts 270°
2026-04-26 21:51 25.45964 55.16510 6964 ft 272 kts 270°
2026-04-26 21:52 25.45923 55.14409 7585 ft 274 kts 270°
2026-04-26 21:52 25.45860 55.12289 8138 ft 278 kts 267°
2026-04-26 21:52 25.45593 55.10155 8719 ft 282 kts 260°
2026-04-26 21:52 25.45076 55.08034 9282 ft 286 kts 253°
2026-04-26 21:53 25.44345 55.06011 9876 ft 288 kts 247°
2026-04-26 21:53 25.43377 55.04039 10335 ft 299 kts 240°
2026-04-26 21:53 25.42156 55.02096 10494 ft 317 kts 236°
2026-04-26 21:53 25.40818 55.00067 10647 ft 333 kts 236°
2026-04-26 21:54 25.39440 54.97966 11077 ft 340 kts 235°
2026-04-26 21:54 25.38055 54.95842 11662 ft 341 kts 235°
2026-04-26 21:54 25.36674 54.93702 12283 ft 342 kts 237°
2026-04-26 21:54 25.35696 54.91308 12852 ft 342 kts 256°
2026-04-26 21:55 25.35521 54.88688 13450 ft 345 kts 275°
2026-04-26 21:55 25.36102 54.86138 14033 ft 348 kts 287°
2026-04-26 21:55 25.36879 54.83589 14576 ft 351 kts 287°
2026-04-26 21:55 25.37651 54.81020 15150 ft 353 kts 286°
2026-04-26 21:56 25.38409 54.78429 15706 ft 354 kts 285°
2026-04-26 21:56 25.39156 54.75827 16287 ft 355 kts 285°
2026-04-26 21:56 25.39903 54.73207 16824 ft 358 kts 285°
2026-04-26 21:56 25.40648 54.70578 17354 ft 359 kts 285°
2026-04-26 21:57 25.41400 54.67936 17880 ft 362 kts 285°
2026-04-26 21:57 25.42150 54.65303 18409 ft 363 kts 284°
2026-04-26 21:57 25.42912 54.62622 18928 ft 366 kts 284°
2026-04-26 21:57 25.43682 54.59934 19453 ft 368 kts 285°
2026-04-26 21:58 25.44480 54.57232 19949 ft 371 kts 285°
2026-04-26 21:58 25.45292 54.54508 20454 ft 373 kts 285°
2026-04-26 21:58 25.46106 54.51771 20951 ft 375 kts 285°
2026-04-26 21:58 25.46920 54.49019 21444 ft 377 kts 285°
2026-04-26 21:59 25.47738 54.46252 21942 ft 380 kts 285°
2026-04-26 21:59 25.48560 54.43469 22438 ft 382 kts 285°
2026-04-26 21:59 25.49377 54.40697 22915 ft 385 kts 285°
2026-04-26 21:59 25.50207 54.37878 23378 ft 387 kts 285°
2026-04-26 22:00 25.51046 54.35029 23884 ft 389 kts 285°
2026-04-26 22:00 25.51887 54.32172 24351 ft 391 kts 285°
2026-04-26 22:00 25.52731 54.29297 24811 ft 394 kts 285°
2026-04-26 22:00 25.53581 54.26409 25311 ft 395 kts 285°
2026-04-26 22:01 25.54431 54.23510 25773 ft 397 kts 286°
2026-04-26 22:01 25.55286 54.20590 26206 ft 399 kts 286°
2026-04-26 22:01 25.56144 54.17663 26617 ft 401 kts 286°
2026-04-26 22:01 25.57009 54.14711 27078 ft 402 kts 286°
2026-04-26 22:02 25.57874 54.11760 27465 ft 404 kts 286°
2026-04-26 22:02 25.58449 54.09797 27759 ft 405 kts 286°
2026-04-26 22:02 25.59613 54.05812 28324 ft 406 kts 286°
2026-04-26 22:02 25.60472 54.02822 28722 ft 408 kts 286°
2026-04-26 22:03 25.61328 53.99808 29080 ft 411 kts 286°
2026-04-26 22:03 25.62173 53.96830 29492 ft 411 kts 286°
2026-04-26 22:03 25.63032 53.93801 29887 ft 413 kts 286°
2026-04-26 22:03 25.63900 53.90749 30252 ft 415 kts 287°
2026-04-26 22:04 25.64768 53.87695 30626 ft 417 kts 287°
2026-04-26 22:04 25.65643 53.84615 30948 ft 420 kts 287°
2026-04-26 22:04 25.66525 53.81510 31289 ft 423 kts 287°
2026-04-26 22:04 25.67408 53.78395 31634 ft 426 kts 287°
2026-04-26 22:05 25.68300 53.75251 31948 ft 428 kts 287°
2026-04-26 22:05 25.69195 53.72089 32246 ft 430 kts 287°
2026-04-26 22:05 25.70090 53.68917 32517 ft 432 kts 287°
2026-04-26 22:05 25.70988 53.65727 32789 ft 433 kts 287°
2026-04-26 22:06 25.71891 53.62514 32963 ft 435 kts 287°
2026-04-26 22:06 25.72779 53.59346 33135 ft 437 kts 287°
2026-04-26 22:06 25.73684 53.56120 33292 ft 438 kts 287°
2026-04-26 22:06 25.74591 53.52889 33451 ft 439 kts 287°
2026-04-26 22:07 25.75499 53.49651 33630 ft 439 kts 287°
2026-04-26 22:07 25.76404 53.46417 33834 ft 438 kts 287°
2026-04-26 22:07 25.77306 53.43196 34032 ft 437 kts 287°
2026-04-26 22:07 25.78208 53.39978 34234 ft 436 kts 287°
2026-04-26 22:08 25.79106 53.36769 34395 ft 436 kts 287°
2026-04-26 22:08 25.79997 53.33585 34580 ft 435 kts 287°
2026-04-26 22:08 25.80904 53.30345 34811 ft 433 kts 287°
2026-04-26 22:08 25.81798 53.27152 35008 ft 433 kts 287°
2026-04-26 22:09 25.82678 53.24004 35149 ft 433 kts 287°
2026-04-26 22:09 25.83565 53.20819 35315 ft 432 kts 287°
2026-04-26 22:09 25.84555 53.17674 35501 ft 431 kts 291°
2026-04-26 22:09 25.85781 53.14634 35670 ft 432 kts 293°
2026-04-26 22:10 25.87030 53.11603 35856 ft 431 kts 293°
2026-04-26 22:10 25.88266 53.08576 36059 ft 430 kts 292°
2026-04-26 22:10 25.89496 53.05553 36243 ft 429 kts 292°
2026-04-26 22:10 25.90727 53.02526 36424 ft 429 kts 292°
2026-04-26 22:11 25.91954 52.99505 36628 ft 428 kts 292°
2026-04-26 22:11 25.93173 52.96501 36854 ft 427 kts 292°
2026-04-26 22:11 25.94383 52.93520 37265 ft 420 kts 292°
2026-04-26 22:11 25.95581 52.90563 37581 ft 417 kts 292°
2026-04-26 22:12 25.96773 52.87622 37759 ft 418 kts 292°
2026-04-26 22:12 25.97966 52.84681 37891 ft 417 kts 292°
2026-04-26 22:12 26.00347 52.78799 37894 ft 416 kts 292°
2026-04-26 22:13 26.02716 52.72974 37896 ft 412 kts 292°
2026-04-26 22:13 26.05305 52.67271 37891 ft 414 kts 294°
2026-04-26 22:14 26.07897 52.61604 37890 ft 413 kts 294°
2026-04-26 22:14 26.10481 52.55881 37885 ft 414 kts 293°
2026-04-26 22:15 26.13056 52.50152 37885 ft 414 kts 293°
2026-04-26 22:15 26.15639 52.44426 37889 ft 414 kts 293°
2026-04-26 22:16 26.18218 52.38703 37891 ft 414 kts 294°
2026-04-26 22:16 26.20780 52.33004 37887 ft 414 kts 293°
2026-04-26 22:17 26.23337 52.27258 37890 ft 413 kts 292°
2026-04-26 22:17 26.25822 52.21487 37890 ft 413 kts 292°
2026-04-26 22:18 26.28308 52.15712 37889 ft 413 kts 292°
2026-04-26 22:18 26.30806 52.09930 37885 ft 413 kts 292°
2026-04-26 22:19 26.33302 52.04164 37884 ft 413 kts 292°
2026-04-26 22:19 26.35790 51.98389 37887 ft 413 kts 292°
2026-04-26 22:20 26.37803 51.93556 37889 ft 413 kts 290°
2026-04-26 22:20 26.40152 51.86565 37890 ft 412 kts 288°
2026-04-26 22:21 26.42160 51.80579 37886 ft 412 kts 288°
2026-04-26 22:21 26.44153 51.74625 37891 ft 412 kts 288°
2026-04-26 22:22 26.46158 51.68641 37891 ft 412 kts 288°
2026-04-26 22:22 26.48160 51.62656 37885 ft 413 kts 288°
2026-04-26 22:23 26.50140 51.56654 37886 ft 411 kts 288°
2026-04-26 22:23 26.52132 51.50683 37898 ft 410 kts 288°